Time,TemperatureF,DewpointF,PressureIn,WindDirection,WindDirectionDegrees,WindSpeedMPH,WindSpeedGustMPH,Humidity,HourlyPrecipIn,Conditions,Clouds,dailyrainin,SolarRadiationWatts/m^2,SoftwareType,DateUTC
2013-03-09 00:01:00,29.0,29.0,-100.00,SE,132,1.0,4.0,98,0.00,,,0.00,0.000000,,2013-03-09 07:01:00,
2013-03-09 00:11:00,29.0,29.0,-100.00,SE,132,1.0,4.0,98,0.00,,,0.00,0.000000,,2013-03-09 07:11:00,
2013-03-09 00:21:00,29.0,29.0,-100.00,SE,132,1.0,4.0,98,0.00,,,0.00,0.000000,,2013-03-09 07:21:00,
2013-03-09 00:42:00,28.0,28.0,-100.00,North,354,0.0,3.0,98,0.00,,,0.00,0.000000,,2013-03-09 07:42:00,
2013-03-09 00:52:00,28.0,28.0,-100.00,North,354,0.0,3.0,98,0.00,,,0.00,0.000000,,2013-03-09 07:52:00,
2013-03-09 01:01:00,28.0,28.0,-100.00,North,354,0.0,3.0,98,0.00,,,0.00,0.000000,,2013-03-09 08:01:00,
2013-03-09 01:11:00,28.0,28.0,-100.00,North,354,0.0,3.0,98,0.00,,,0.00,0.000000,,2013-03-09 08:11:00,
2013-03-09 01:21:00,28.0,28.0,-100.00,North,354,0.0,3.0,98,0.00,,,0.00,0.000000,,2013-03-09 08:21:00,
2013-03-09 01:42:00,26.0,25.0,-100.00,NNW,330,0.0,2.0,95,0.00,,,0.00,0.000000,,2013-03-09 08:42:00,
2013-03-09 01:52:00,26.0,25.0,-100.00,NNW,330,0.0,2.0,95,0.00,,,0.00,0.000000,,2013-03-09 08:52:00,
2013-03-09 02:01:00,26.0,25.0,-100.00,NNW,330,0.0,2.0,95,0.00,,,0.00,0.000000,,2013-03-09 09:01:00,
2013-03-09 02:12:00,26.0,25.0,-100.00,NNW,330,0.0,2.0,95,0.00,,,0.00,0.000000,,2013-03-09 09:12:00,
2013-03-09 02:21:00,26.0,25.0,-100.00,NNW,330,0.0,2.0,95,0.00,,,0.00,0.000000,,2013-03-09 09:21:00,
2013-03-09 02:42:00,25.0,24.0,-100.00,NW,317,2.0,2.0,95,0.00,,,0.00,0.000000,,2013-03-09 09:42:00,
2013-03-09 02:52:00,25.0,24.0,-100.00,NW,317,2.0,2.0,95,0.00,,,0.00,0.000000,,2013-03-09 09:52:00,
2013-03-09 03:01:00,25.0,24.0,-100.00,NW,317,2.0,2.0,95,0.00,,,0.00,0.000000,,2013-03-09 10:01:00,
2013-03-09 03:11:00,25.0,24.0,-100.00,NW,317,2.0,2.0,95,0.00,,,0.00,0.000000,,2013-03-09 10:11:00,
2013-03-09 03:21:00,25.0,24.0,-100.00,NW,317,2.0,2.0,95,0.00,,,0.00,0.000000,,2013-03-09 10:21:00,
2013-03-09 03:42:00,23.0,21.0,-100.00,West,280,1.0,3.0,93,0.00,,,0.00,0.000000,,2013-03-09 10:42:00,
2013-03-09 03:52:00,23.0,21.0,-100.00,West,280,1.0,3.0,93,0.00,,,0.00,0.000000,,2013-03-09 10:52:00,
2013-03-09 04:01:00,23.0,21.0,-100.00,West,280,1.0,3.0,93,0.00,,,0.00,0.000000,,2013-03-09 11:01:00,
2013-03-09 04:11:00,23.0,21.0,-100.00,West,280,1.0,3.0,93,0.00,,,0.00,0.000000,,2013-03-09 11:11:00,
2013-03-09 04:21:00,23.0,21.0,-100.00,West,280,1.0,3.0,93,0.00,,,0.00,0.000000,,2013-03-09 11:21:00,
2013-03-09 04:42:00,23.0,22.0,-100.00,WSW,240,2.0,3.0,95,0.00,,,0.00,0.000000,,2013-03-09 11:42:00,
2013-03-09 04:52:00,23.0,22.0,-100.00,WSW,240,2.0,3.0,95,0.00,,,0.00,0.000000,,2013-03-09 11:52:00,
2013-03-09 05:01:00,23.0,22.0,-100.00,WSW,240,2.0,3.0,95,0.00,,,0.00,0.000000,,2013-03-09 12:01:00,
2013-03-09 05:11:00,23.0,22.0,-100.00,WSW,240,2.0,3.0,95,0.00,,,0.00,0.000000,,2013-03-09 12:11:00,
2013-03-09 05:21:00,23.0,22.0,-100.00,WSW,240,2.0,3.0,95,0.00,,,0.00,0.000000,,2013-03-09 12:21:00,
2013-03-09 05:42:00,21.0,19.0,-100.00,NW,320,0.0,3.0,90,0.00,,,0.00,0.000000,,2013-03-09 12:42:00,
2013-03-09 05:52:00,21.0,19.0,-100.00,NW,320,0.0,3.0,90,0.00,,,0.00,0.000000,,2013-03-09 12:52:00,
2013-03-09 06:02:00,21.0,19.0,-100.00,NW,320,0.0,3.0,90,0.00,,,0.00,0.000000,,2013-03-09 13:02:00,
2013-03-09 06:11:00,21.0,19.0,-100.00,NW,320,0.0,3.0,90,0.00,,,0.00,0.000000,,2013-03-09 13:11:00,
2013-03-09 06:21:00,21.0,19.0,-100.00,NW,320,0.0,3.0,90,0.00,,,0.00,0.000000,,2013-03-09 13:21:00,
2013-03-09 06:42:00,20.0,18.0,-100.00,NNW,327,2.0,3.0,90,0.00,,,0.00,0.000000,,2013-03-09 13:42:00,
2013-03-09 06:52:00,20.0,18.0,-100.00,NNW,327,2.0,3.0,90,0.00,,,0.00,0.000000,,2013-03-09 13:52:00,
2013-03-09 07:01:00,20.0,18.0,-100.00,NNW,327,2.0,3.0,90,0.00,,,0.00,0.000000,,2013-03-09 14:01:00,
2013-03-09 07:11:00,20.0,18.0,-100.00,NNW,327,2.0,3.0,90,0.00,,,0.00,0.000000,,2013-03-09 14:11:00,
2013-03-09 07:21:00,20.0,18.0,-100.00,NNW,327,2.0,3.0,90,0.00,,,0.00,0.000000,,2013-03-09 14:21:00,
2013-03-09 07:42:00,27.0,23.0,-100.00,WSW,246,0.0,3.0,86,0.00,,,0.00,24.000000,,2013-03-09 14:42:00,
2013-03-09 07:52:00,27.0,23.0,-100.00,WSW,246,0.0,3.0,86,0.00,,,0.00,24.000000,,2013-03-09 14:52:00,
2013-03-09 08:02:00,27.0,23.0,-100.00,WSW,246,0.0,3.0,86,0.00,,,0.00,24.000000,,2013-03-09 15:02:00,
2013-03-09 08:11:00,27.0,23.0,-100.00,WSW,246,0.0,3.0,86,0.00,,,0.00,24.000000,,2013-03-09 15:11:00,
2013-03-09 08:22:00,27.0,23.0,-100.00,WSW,246,0.0,3.0,86,0.00,,,0.00,24.000000,,2013-03-09 15:22:00,
2013-03-09 08:42:00,30.0,24.0,-100.00,SSE,157,1.0,2.0,78,0.00,,,0.00,55.000000,,2013-03-09 15:42:00,
2013-03-09 08:52:00,30.0,24.0,-100.00,SSE,157,1.0,2.0,78,0.00,,,0.00,55.000000,,2013-03-09 15:52:00,
2013-03-09 09:01:00,30.0,24.0,-100.00,SSE,157,1.0,2.0,78,0.00,,,0.00,55.000000,,2013-03-09 16:01:00,
2013-03-09 09:11:00,30.0,24.0,-100.00,SSE,157,1.0,2.0,78,0.00,,,0.00,55.000000,,2013-03-09 16:11:00,
2013-03-09 09:21:00,30.0,24.0,-100.00,SSE,157,1.0,2.0,78,0.00,,,0.00,55.000000,,2013-03-09 16:21:00,
2013-03-09 09:42:00,29.0,22.0,-100.00,SSE,156,2.0,3.0,74,0.00,,,0.00,78.000000,,2013-03-09 16:42:00,
2013-03-09 09:52:00,29.0,22.0,-100.00,SSE,156,2.0,3.0,74,0.00,,,0.00,78.000000,,2013-03-09 16:52:00,
2013-03-09 10:01:00,29.0,22.0,-100.00,SSE,156,2.0,3.0,74,0.00,,,0.00,78.000000,,2013-03-09 17:01:00,
2013-03-09 10:11:00,29.0,22.0,-100.00,SSE,156,2.0,3.0,74,0.00,,,0.00,78.000000,,2013-03-09 17:11:00,
2013-03-09 10:22:00,29.0,22.0,-100.00,SSE,156,2.0,3.0,74,0.00,,,0.00,78.000000,,2013-03-09 17:22:00,
2013-03-09 10:42:00,32.0,25.0,-100.00,SE,143,2.0,3.0,76,0.00,,,0.00,85.000000,,2013-03-09 17:42:00,
2013-03-09 10:52:00,32.0,25.0,-100.00,SE,143,2.0,3.0,76,0.00,,,0.00,85.000000,,2013-03-09 17:52:00,
2013-03-09 11:02:00,32.0,25.0,-100.00,SE,143,2.0,3.0,76,0.00,,,0.00,85.000000,,2013-03-09 18:02:00,
2013-03-09 11:11:00,32.0,25.0,-100.00,SE,143,2.0,3.0,76,0.00,,,0.00,85.000000,,2013-03-09 18:11:00,
2013-03-09 11:21:00,32.0,25.0,-100.00,SE,143,2.0,3.0,76,0.00,,,0.00,85.000000,,2013-03-09 18:21:00,
2013-03-09 11:42:00,29.0,26.0,-100.00,SSE,147,2.0,3.0,88,0.00,,,0.00,102.000000,,2013-03-09 18:42:00,
2013-03-09 11:52:00,29.0,26.0,-100.00,SSE,147,2.0,3.0,88,0.00,,,0.00,102.000000,,2013-03-09 18:52:00,
2013-03-09 12:01:00,29.0,26.0,-100.00,SSE,147,2.0,3.0,88,0.00,,,0.00,102.000000,,2013-03-09 19:01:00,
2013-03-09 12:11:00,29.0,26.0,-100.00,SSE,147,2.0,3.0,88,0.00,,,0.00,102.000000,,2013-03-09 19:11:00,
2013-03-09 12:22:00,29.0,26.0,-100.00,SSE,147,2.0,3.0,88,0.00,,,0.00,102.000000,,2013-03-09 19:22:00,
2013-03-09 12:42:00,28.0,26.0,-100.00,SE,143,2.0,5.0,91,0.00,,,0.00,40.000000,,2013-03-09 19:42:00,
2013-03-09 12:52:00,28.0,26.0,-100.00,SE,143,2.0,5.0,91,0.00,,,0.00,40.000000,,2013-03-09 19:52:00,
2013-03-09 13:01:00,28.0,26.0,-100.00,SE,143,2.0,5.0,91,0.00,,,0.00,40.000000,,2013-03-09 20:01:00,
2013-03-09 13:11:00,28.0,26.0,-100.00,SE,143,2.0,5.0,91,0.00,,,0.00,40.000000,,2013-03-09 20:11:00,
2013-03-09 13:21:00,28.0,26.0,-100.00,SE,143,2.0,5.0,91,0.00,,,0.00,40.000000,,2013-03-09 20:21:00,
2013-03-09 13:42:00,28.0,25.0,-100.00,SSW,201,2.0,3.0,88,0.00,,,0.00,32.000000,,2013-03-09 20:42:00,
2013-03-09 13:52:00,28.0,25.0,-100.00,SSW,201,2.0,3.0,88,0.00,,,0.00,32.000000,,2013-03-09 20:52:00,
2013-03-09 14:02:00,28.0,25.0,-100.00,SSW,201,2.0,3.0,88,0.00,,,0.00,32.000000,,2013-03-09 21:02:00,
2013-03-09 14:12:00,28.0,25.0,-100.00,SSW,201,2.0,3.0,88,0.00,,,0.00,32.000000,,2013-03-09 21:12:00,
2013-03-09 14:21:00,28.0,25.0,-100.00,SSW,201,2.0,3.0,88,0.00,,,0.00,32.000000,,2013-03-09 21:21:00,
2013-03-09 14:52:00,29.0,25.0,-100.00,SE,139,2.0,4.0,84,0.00,,,0.00,44.000000,,2013-03-09 21:52:00,
2013-03-09 15:01:00,29.0,25.0,-100.00,SE,139,2.0,4.0,84,0.00,,,0.00,44.000000,,2013-03-09 22:01:00,
2013-03-09 15:11:00,29.0,25.0,-100.00,SE,139,2.0,4.0,84,0.00,,,0.00,44.000000,,2013-03-09 22:11:00,
2013-03-09 15:21:00,29.0,25.0,-100.00,SE,139,2.0,4.0,84,0.00,,,0.00,44.000000,,2013-03-09 22:21:00,
2013-03-09 15:42:00,29.0,26.0,-100.00,SE,146,2.0,3.0,88,0.00,,,0.00,31.000000,,2013-03-09 22:42:00,
2013-03-09 15:52:00,29.0,26.0,-100.00,SE,146,2.0,3.0,88,0.00,,,0.00,31.000000,,2013-03-09 22:52:00,
2013-03-09 16:01:00,29.0,26.0,-100.00,SE,146,2.0,3.0,88,0.00,,,0.00,31.000000,,2013-03-09 23:01:00,
2013-03-09 16:11:00,29.0,26.0,-100.00,SE,146,2.0,3.0,88,0.00,,,0.00,31.000000,,2013-03-09 23:11:00,
2013-03-09 16:21:00,29.0,26.0,-100.00,SE,146,2.0,3.0,88,0.00,,,0.00,31.000000,,2013-03-09 23:21:00,
2013-03-09 16:42:00,27.0,25.0,-100.00,SSE,155,1.0,2.0,92,0.00,,,0.00,15.000000,,2013-03-09 23:42:00,
2013-03-09 16:52:00,27.0,25.0,-100.00,SSE,155,1.0,2.0,92,0.00,,,0.00,15.000000,,2013-03-09 23:52:00,
2013-03-09 17:01:00,27.0,25.0,-100.00,SSE,155,1.0,2.0,92,0.00,,,0.00,15.000000,,2013-03-10 00:01:00,
2013-03-09 17:11:00,27.0,25.0,-100.00,SSE,155,1.0,2.0,92,0.00,,,0.00,15.000000,,2013-03-10 00:11:00,
2013-03-09 17:22:00,27.0,25.0,-100.00,SSE,155,1.0,2.0,92,0.00,,,0.00,15.000000,,2013-03-10 00:22:00,
2013-03-09 17:43:00,26.0,23.0,-100.00,West,270,1.0,2.0,90,0.00,,,0.00,7.000000,,2013-03-10 00:43:00,
2013-03-09 17:52:00,26.0,23.0,-100.00,West,270,1.0,2.0,90,0.00,,,0.00,7.000000,,2013-03-10 00:52:00,
2013-03-09 18:01:00,26.0,23.0,-100.00,West,270,1.0,2.0,90,0.00,,,0.00,7.000000,,2013-03-10 01:01:00,
2013-03-09 18:11:00,26.0,23.0,-100.00,West,270,1.0,2.0,90,0.00,,,0.00,7.000000,,2013-03-10 01:11:00,
2013-03-09 18:21:00,26.0,23.0,-100.00,West,270,1.0,2.0,90,0.00,,,0.00,7.000000,,2013-03-10 01:21:00,
2013-03-09 18:42:00,25.0,23.0,-100.00,West,275,0.0,2.0,93,0.00,,,-99.99,2.000000,,2013-03-10 01:42:00,
2013-03-09 18:52:00,25.0,23.0,-100.00,West,275,0.0,2.0,93,0.00,,,-99.99,2.000000,,2013-03-10 01:52:00,
2013-03-09 19:01:00,25.0,23.0,-100.00,West,275,0.0,2.0,93,0.00,,,-99.99,2.000000,,2013-03-10 02:01:00,
2013-03-09 19:11:00,25.0,23.0,-100.00,West,275,0.0,2.0,93,0.00,,,-99.99,2.000000,,2013-03-10 02:11:00,
2013-03-09 19:22:00,25.0,23.0,-100.00,West,275,0.0,2.0,93,0.00,,,-99.99,2.000000,,2013-03-10 02:22:00,
2013-03-09 19:42:00,23.0,21.0,-100.00,SSE,168,1.0,3.0,91,0.00,,,-99.99,0.000000,,2013-03-10 02:42:00,
2013-03-09 19:52:00,23.0,21.0,-100.00,SSE,168,1.0,3.0,91,0.00,,,-99.99,0.000000,,2013-03-10 02:52:00,
2013-03-09 20:02:00,23.0,21.0,-100.00,SSE,168,1.0,3.0,91,0.00,,,-99.99,0.000000,,2013-03-10 03:02:00,
2013-03-09 20:11:00,23.0,21.0,-100.00,SSE,168,1.0,3.0,91,0.00,,,-99.99,0.000000,,2013-03-10 03:11:00,
2013-03-09 20:22:00,23.0,21.0,-100.00,SSE,168,1.0,3.0,91,0.00,,,-99.99,0.000000,,2013-03-10 03:22:00,
2013-03-09 20:42:00,19.0,14.0,-100.00,NNW,335,1.0,3.0,82,0.00,,,-99.99,0.000000,,2013-03-10 03:42:00,
2013-03-09 20:52:00,19.0,14.0,-100.00,NNW,335,1.0,3.0,82,0.00,,,-99.99,0.000000,,2013-03-10 03:52:00,
2013-03-09 21:01:00,19.0,14.0,-100.00,NNW,335,1.0,3.0,82,0.00,,,-99.99,0.000000,,2013-03-10 04:01:00,
2013-03-09 21:11:00,19.0,14.0,-100.00,NNW,335,1.0,3.0,82,0.00,,,-99.99,0.000000,,2013-03-10 04:11:00,
2013-03-09 21:21:00,19.0,14.0,-100.00,NNW,335,1.0,3.0,82,0.00,,,-99.99,0.000000,,2013-03-10 04:21:00,
2013-03-09 21:42:00,14.0,10.0,-100.00,West,264,2.0,3.0,85,0.00,,,0.00,0.000000,,2013-03-10 04:42:00,
2013-03-09 21:52:00,14.0,10.0,-100.00,West,264,2.0,3.0,85,0.00,,,0.00,0.000000,,2013-03-10 04:52:00,
2013-03-09 22:01:00,14.0,10.0,-100.00,West,264,2.0,3.0,85,0.00,,,0.00,0.000000,,2013-03-10 05:01:00,
2013-03-09 22:11:00,14.0,10.0,-100.00,West,264,2.0,3.0,85,0.00,,,0.00,0.000000,,2013-03-10 05:11:00,
2013-03-09 22:22:00,14.0,10.0,-100.00,West,264,2.0,3.0,85,0.00,,,0.00,0.000000,,2013-03-10 05:22:00,
2013-03-09 22:42:00,17.0,13.0,-100.00,South,185,3.0,5.0,84,0.00,,,0.00,0.000000,,2013-03-10 05:42:00,
2013-03-09 22:52:00,17.0,13.0,-100.00,South,185,3.0,5.0,84,0.00,,,0.00,0.000000,,2013-03-10 05:52:00,
2013-03-09 23:01:00,17.0,13.0,-100.00,South,185,3.0,5.0,84,0.00,,,0.00,0.000000,,2013-03-10 06:01:00,
2013-03-09 23:11:00,17.0,13.0,-100.00,South,185,3.0,5.0,84,0.00,,,0.00,0.000000,,2013-03-10 06:11:00,
2013-03-09 23:22:00,17.0,13.0,-100.00,South,185,3.0,5.0,84,0.00,,,0.00,0.000000,,2013-03-10 06:22:00,
2013-03-09 23:42:00,16.0,9.0,-100.00,WNW,300,2.0,6.0,75,0.00,,,0.00,0.000000,,2013-03-10 06:42:00,
2013-03-09 23:52:00,16.0,9.0,-100.00,WNW,300,2.0,6.0,75,0.00,,,0.00,0.000000,,2013-03-10 06:52:00,